Regional Weather Roundup
Issued by NWS Mobile, AL

Home | Current Version | Previous Version | Text Only | Print | Product List | Glossary On
Versions: 1 2 3 4 5 6 7 8 9 10 11 12 13 14 15 16 17 18 19 20 21 22 23 24 25 26 27 28 29 30 31 32 33 34 35 36 37 38 39 40 41 42 43 44 45 46 47 48 49 50
000
ASUS44 KMOB 012210
RWRMOB
REGIONAL WEATHER ROUNDUP
NATIONAL WEATHER SERVICE MOBILE AL
500 PM CDT WED OCT 01 2014

NOTE: "FAIR" INDICATES FEW OR NO CLOUDS BELOW 12,000 FEET WITH NO
      SIGNIFICANT WEATHER AND/OR OBSTRUCTIONS TO VISIBILITY.

  * THESE STATIONS ARE PART OF THE UNIVERSITY OF SOUTH ALABAMA
    MESONET AND ARE NOT UNDER NWS OR FAA QUALITY CONTROL.

ALZ061>064-012300-
COASTAL ALABAMA

CITY           SKY/WX    TMP DP  RH WIND       PRES   REMARKS
MOBILE REG APT PTSUNNY   80  72  76 S8        29.94R
BROOKLEY FIELD CLOUDY    80  73  79 S5        29.94R
USA CAMPUS*      N/A     81  72  74 CALM      29.91R
DOG RIVER*     NOT AVBL


CITY           SKY/WX    TMP DP  RH WIND       PRES   REMARKS
MOUNT VERNON*    N/A     82  68  61 CALM      29.91S
SARALAND*      NOT AVBL
BAY MINETTE*   NOT AVBL
LOXLEY*          N/A     81  72  74 S3        29.93R
ROBERTSDALE*     N/A     81  72  74 S3        29.93R
FAIRHOPE*        N/A     81  70  69 S6        29.92R
ELBERTA*         N/A     79  72  78 SE3       29.92S
FOLEY*         NOT AVBL
GRAND BAY*       N/A     79  72  78 SE7       29.91S
DAUPHIN ISLND* NOT AVBL
BON SCOUR NWR* NOT AVBL
GULF SHORES    PTSUNNY   79  72  79 SE7       29.93R

$$

ALZ051>060-012300-
INTERIOR SOUTHWEST AND SOUTH CENTRAL ALABAMA

CITY           SKY/WX    TMP DP  RH WIND       PRES   REMARKS
GREENVILLE     PTSUNNY   83  63  50 SE3       29.93F
EVERGREEN      PTSUNNY   86  63  45 NE5       29.93S
CASTLEBERRY*   NOT AVBL
ATMORE*          N/A     84  66  54 SE3       29.93S
DIXIE*           N/A     82  66  57 CALM      29.91R
ANDALUSIA/OPP  PTSUNNY   87  62  43 SE3       29.93S
ANDALUSIA*     NOT AVBL
FLORALA APT    PTSUNNY   83  64  52 CALM      29.95S
FLORALA*         N/A     82  63  51 CALM      29.90R

$$

FLZ001>006-012300-
WESTERN FLORIDA PANHANDLE

CITY           SKY/WX    TMP DP  RH WIND       PRES   REMARKS
PENSACOLA      PTSUNNY   80  70  71 S7        29.93R
NAS PENSACOLA  PTSUNNY   79  70  74 SE7       29.92S
MILTON         PTSUNNY   81  69  67 S8        29.93R
WHTNG S FIELD  PTSUNNY   83  70  64 S9        29.93R


CITY           SKY/WX    TMP DP  RH WIND       PRES   REMARKS
WALNUT HILL*   NOT AVBL
JAY*             N/A     84  63  48 SE3       29.92R
DUKE FIELD     PTSUNNY   82  75  79 S8        29.93R
CRESTVIEW      PTSUNNY   84  66  54 E3        29.94S
VALPARAISO     PTSUNNY   80  70  70 S7        29.93R
DESTIN         PTSUNNY   82  69  64 VRB3      29.93R

$$

MSZ076-079-012300-
INTERIOR SOUTHEAST MISSISSIPPI

CITY           SKY/WX    TMP DP  RH WIND       PRES   REMARKS
LEAKESVILLE*     N/A     86  63  45 SE10      29.92
AGRICOLA*      NOT AVBL

$$

MARINE OBSERVATIONS

STATION/POSITION TIME  TEMP    WIND        PRES    WAVE
                       AIR SEA DIR/SP/G            HT/PER
                 (UTC) (F)     (DEG/KT/KT) (MB)    (FT/S)
PASCAGOULA       2200   80     130/  9/ 11 1012.9F
PETIT BOIS ISLND 2200   80     120/  8/ 10 1013.3S
GRAND BAY        2100   79     140/ 10     1014.0S
E DAUPHIN ISLAND 2100   79     110/ 10/ 11 1013.2S
MIDDLE BAY LIGHT 2000   79     150/  9     1012.9S
USCG MOBILE BAY  2200   80 79              1012.3S
STATE DOCKS      2200   81 81              1013.1S
MEAHER PARK      2000   81     190/  6     1012.5S
WEEKS BAY        2100   84                   N/A
FORT MORGAN      2200   79     130/ 11/ 12 1012.9S
12 S ORANGE BCH  2200   79 82  110/ 10/ 12 1013.4S   2/ 3
PENSACOLA BAY    2200   81 81  180/  4/  7 1013.6F
64 S DAUPHIN ISL 2149   81 83  130/  8/ 10 1013.2F   1/ 5
67 S FORT MORGAN 2100   80                 1012.9F

$$

SELECTED LOCATIONS ACROSS THE REGION

CITY           SKY/WX    TMP DP  RH WIND       PRES   REMARKS
NEW ORLEANS    PTSUNNY   83  73  72 SE10      29.88F
GULFPORT       PTSUNNY   81  73  76 SE13      29.91S
PASCAGOULA AP  PTSUNNY   81  73  76 SE8       29.92S
PASCAGOULA*      N/A     81  73  78 SE3       29.91F
HATTIESBURG    MOSUNNY   86  69  56 S10       29.91S
LAUREL         SUNNY     86  64  48 SE9       29.93R
MERIDIAN       SUNNY     87  59  38 SE3       29.90S
JACKSON        MOSUNNY   87  66  49 SE8       29.88R
MONTGOMERY     MOSUNNY   86  62  44 E8        29.93S
TROY           MOSUNNY   82  62  50 S3        29.95S
KINSTON*       NOT AVBL
GENEVA*          N/A     82  63  51 CALM      29.95
ASHFORD*       NOT AVBL
DOTHAN         CLOUDY    83  63  50 CALM      29.98R
PANAMA CITY    PTSUNNY   84  69  60 S7        29.92R

$$




USA.gov is the U.S. government's official web portal to all federal, state and local government web resources and services.